Reflectivity
-20 -20 -20 -20 -20 -20 -20 -20 -20 -20 -20 -20 -20 -20 -20 -20 -20 -20 -20 -20 -20 -20 -20 -20 -20 -20 -20 -20 -20 -20 -20 -20 -20 -20 -20 -20 -20 -20 -20 -20 -20 -20 -20
-20 -20 -20 -20 -20 -20 -20 -20 -20 -20 -20 -20 -20 -20 -20 -20 -20 -20 -20 -20 -20 -20 -20 -20 -20 -20 -20 -20 -20 -20 -20 -20 -20 -20 -20 -20 -20 -20 -20 -20 -20 -20 -20
-20 -20 -20 -20 -20 -20 -20 -20 -20 -20 -20 -20 -20 -20 -20 -20 -20 -20 -20 -20 -20 -20 -20 -20 -20 -20 -20 -20 -20 -20 -20 -20 -20 -20 -20 -20 -20 -20 -20 -20 -20 -20 -20
-20 -20 -20 -20 -20 -20 -20 -20 -20 -20 -20 -20 -20 -20 -20 -20 -20 -20 -20 -20 -20 -20 -20 -20 -20 -20 -20 -20 -20 -20 -20 -20 -20 -20 -20 -20 -20 -20 -20 -20 -20 -20 -20
-20 -20 -20 -20 -20 -20 -20 -20 -20 -20 -20 -20 -20 -20 -20 -20 -20 -20 -20 -20 -20 -20 -20 -20 -20 -20 -20 -20 -20 -20 -20 -20 -20 -20 -20 -20 -20 -20 -20 -20 -20 -20 -20
-20 -20 -20 -20 -20 -20 -20 -20 -20 -20 -20 -20 -20 -20 -20 -20 -20 -20 -20 -20 -20 -20 -20 -20 -20 -20 -20 -20 -20 -20 -20 -20 -20 -20 -20 -20 -20 -20 -20 -20 -20 -20 -20
-20 -20 -20 -20 -20 -20 -20 -20 -20 -20 -20 -20 -20 -20 -20 -20 -20 -20 -20 -20 -20 -20 -20 -20 -20 -20 -20 -20 -20 -20 -20 -20 -20 -20 -20 -20 -20 -20 -20 -20 -20 -20 -20
-20 -20 -20 -20 -20 -20 -20 -20 -20 -20 -20 -20 -20 -20 -20 -20 -20 -20 -20 -20 -20 -20 -20 -20 -20 -20 -20 -20 -20 -20 -20 -20 -20 -20 -20 -20 -20 -20 -20 -20 -20 -20 -20
-20 -20 -20 -20 -20 -20 -20 -20 -20 -20 -20 -20 -20 -20 -20 -20 -20 -20 -20 -20 -20 -20 -20 -20 -20 -20 -20 -20 -20 -20 -20 -20 -20 -20 -20 -20 -20 -20 -20 -20 -20 -20 -20
-20 -20 -20 -20 -20 -20 -20 -20 -20 -20 -20 -20 -20 -20 -20 -20 -20 -20 -20 -20 -20 -20 -20 -20 -20 -20 -20 -20 -20 -20 -20 -20 -20 -20 -20 -20 -20 -20 -20 -20 -20 -20 -20
-20 -20 -20 -20 -20 -20 -20 -20 -20 -20 -20 -20 -20 -20 -20 -20 -20 -20 -20 -20 -20 -20 -20 -20 -20 -20 -20 -20 -20 -20 -20 -20 -20 -20 -20 -20 -20 -20 -20 -20 -20 -20 -20
-20 -20 -20 -20 -20 -20 -20 -20 -20 -20 -20 -20 -20 -20 -20 -20 -20 -20 -20 -20 -20 -20 -20 -20 -20 -20 -20 -20 -20 -20 -20 -20 -20 -20 -20 -20 -20 -20 -20 -20 -20 -20 -20
-20 -20 -20 -20 -20 -20 -20 -20 -20 -20 -20 -20 -20 -20 -20 -20 -20 -20 -20 -20 -20 -20 -20 -20 -20 -20 -20 -20 -20 -20 -20 -20 -20 -20 -20 -20 -20 -20 -20 -20 -20 -20 -20
-20 -20 -20 -20 -20 -20 -20 -20 -20 -20 -20 -20 -20 -20 -20 -20 -20 -20 -20 -20 -20 -20 -20 -20 -20 -20 -20 -20 -20 -20 -20 -20 -20 -20 -20 -20 -20 -20 -20 -20 -13 -19 -20
-20 -20 -20 -20 -20 -20 -20 -20 -20 -20 -20 -20 -20 -20 -20 -20 -20 -20 -20 -20 -20 -20 -20 -20 -20 -20 -20 -20 -20 -20 -20 -20 -20 -20 -20 -20 -20 -20 -20 -4 -20 -6 -20
-20 -20 -20 -20 -20 -20 -20 -20 -20 -20 -20 -20 -20 -20 -20 -20 -20 -20 -20 -20 -20 -20 -20 -20 -20 -20 -20 -20 -20 -20 -20 -20 -20 -20 -20 -20 -20 -20 -20 -20 1 10 15
-20 -20 -20 -20 -20 -20 -20 -20 -20 -20 -20 -20 -20 -20 -20 -20 -20 -20 -20 -20 -20 -20 -20 -20 -20 -20 -20 -20 -20 -20 -20 -20 -20 -20 -20 -20 -20 -20 -20 -20 11 2 13
-20 -20 -20 -20 -20 -20 -20 -20 -20 -20 -20 -20 -20 -20 -20 -20 -20 -20 -20 -20 -20 -20 -20 -20 -20 -20 -20 -20 -20 -20 -20 -20 -20 -20 -20 -20 -11 -0 9 3 5 8 11
-20 -20 -20 -20 -20 -20 -20 -20 -20 -20 -20 -20 -20 -20 -20 -20 -20 -20 -20 -20 -20 -20 -20 -20 -20 -20 -20 -20 -20 -20 -20 -20 -20 -20 -20 4 3 8 -2 9 19 -11 -20
-20 -20 -20 -20 -20 -20 -20 -20 -20 -20 -20 -20 -20 -20 -20 -20 -20 -20 -20 -20 -20 -20 -20 -20 -20 -20 -20 -20 -20 -20 -20 -20 -20 -20 -20 -6 4 -20 17 12 2 -6 -20
-20 -20 -20 -20 -20 -20 -20 -20 -20 -20 -20 -20 -20 -20 -20 -20 -20 -20 -20 -20 -20 -20 -20 -20 -20 -20 -20 -20 -20 -20 -2 -2 -3 -20 -20 -20 -20 24 -16 -2 -20 -14 6
-20 -20 -20 -20 -20 -20 -20 -20 -20 -20 -20 -20 -20 -20 -20 -20 -20 -20 -20 -20 -20 -20 -20 -20 -20 -20 -20 -20 -20 -20 -9 8 3 -8 -20 -11 18 -20 -20 -16 3 7 -9
-20 -20 -20 -20 -20 -20 -20 -20 -20 -20 -20 -20 -20 -20 -20 -20 -20 -20 -20 -20 -20 -20 -20 -20 -20 -20 -20 -20 -20 -20 3 -17 4 2 11 6 -19 -20 -20 -20 -5 -18 -20
-20 -20 -20 -20 -20 -20 -20 -20 -20 -20 -20 -20 -20 -20 -20 -20 -20 -20 -20 -20 -20 -20 -20 -20 -20 -20 -20 -20 -20 -4 -18 -19 -1 6 -12 -20 -20 -20 -20 -20 -20 -20 -7
-20 -20 -20 -20 -20 -20 -20 -20 -20 -20 -20 -20 -20 -20 -20 -20 -20 -20 -20 -20 -20 -20 -20 -20 -20 -20 -20 -20 -1 -17 4 8 7 -6 -20 -20 -20 -20 -20 -20 -20 -20 -20
-20 -20 -20 -20 -20 -20 -20 -20 -20 -20 -20 -20 -20 -20 -20 -20 -20 -20 -20 -20 -20 -20 -20 -20 -20 -20 -20 -20 -9 -5 10 -5 -0 -19 -20 -20 -20 -20 -20 -20 -20 -20 -16
Wind_Speed
7 8 6 7 7 5 7 6 7 6 9 8 7 7 6 6 7 7 9 9 7 8 7 5 5 5 5 5 6 4 5 3 5 3 5 4 4 3 5 8 5 9 7
8 8 8 7 7 6 6 7 7 7 9 7 5 5 5 6 6 5 6 7 7 7 6 6 5 6 4 6 6 5 4 3 5 3 3 5 5 5 13 4 8 6 7
15 9 8 9 8 7 7 8 7 11 11 13 10 8 7 5 4 4 4 4 7 7 6 6 5 5 5 4 3 4 6 3 3 6 2 5 3 11 3 10 4 9 10
10 10 13 10 9 6 7 7 8 10 9 9 10 8 5 5 2 3 3 4 6 6 6 6 6 5 4 5 4 4 3 3 4 3 3 2 4 4 7 3 11 8 9
18 16 14 13 9 8 7 7 9 8 8 8 8 8 7 4 3 4 6 6 5 6 6 6 6 5 4 4 4 4 5 2 2 2 3 3 2 5 4 11 6 9 8
14 13 13 13 9 7 8 8 11 8 9 9 8 9 9 7 6 5 5 4 3 4 5 5 5 4 4 4 3 3 5 4 3 3 3 2 4 7 7 13 13 13 9
17 17 16 14 9 8 8 8 10 9 9 11 9 9 9 9 8 6 4 4 2 2 4 4 5 3 4 5 4 4 5 4 3 4 4 3 3 3 7 9 13 13 11
16 16 15 13 10 9 8 9 10 9 8 9 8 7 8 5 5 5 3 3 2 2 3 4 4 5 5 5 5 3 4 5 5 7 6 4 4 6 7 9 11 15 14
17 17 15 13 10 8 9 10 10 8 8 8 7 7 7 7 6 5 4 3 3 2 4 4 5 6 6 6 6 4 5 5 4 6 5 4 7 6 6 7 8 10 16
16 15 14 13 8 9 9 9 9 9 8 8 6 6 7 6 6 5 5 4 4 4 5 5 5 6 6 6 5 4 5 5 4 4 6 7 8 9 8 7 5 8 11
16 15 14 12 10 10 10 9 8 9 8 7 6 7 6 6 5 5 4 4 4 5 5 5 6 6 6 6 5 6 6 6 5 5 8 10 11 9 9 9 9 9 7
15 15 15 13 13 11 10 10 8 8 7 7 7 6 6 6 6 5 4 4 4 4 5 5 5 6 6 6 6 6 6 5 6 6 6 12 10 13 12 9 12 9 11
15 15 14 14 12 11 10 9 8 8 7 7 7 6 6 6 4 4 4 4 4 5 5 5 6 6 7 6 6 6 5 6 6 5 7 12 13 13 12 12 11 11 11
18 16 14 13 12 11 10 10 8 7 7 7 7 6 5 4 3 3 3 4 4 5 6 6 6 6 7 7 7 6 6 6 5 5 6 11 12 14 14 13 13 12 12
16 16 15 13 11 11 10 10 8 7 7 7 6 5 4 4 3 3 3 4 5 5 6 6 6 7 7 7 12 11 7 6 6 6 8 10 15 26 22 13 15 16 14
14 14 15 14 13 12 12 11 9 7 7 7 6 5 4 3 3 3 4 5 6 6 6 6 6 7 7 19 22 19 10 6 6 8 11 10 17 17 26 27 31 26 17
16 17 16 14 13 13 13 12 9 7 7 6 5 5 3 2 3 4 5 6 6 6 6 7 6 7 7 20 23 24 11 8 6 9 10 11 10 18 14 23 28 24 28
16 15 12 12 12 12 12 11 9 8 7 6 5 4 3 2 3 4 5 5 4 5 6 6 7 7 8 21 23 25 10 7 7 8 10 11 14 14 22 20 18 16 11
11 10 11 13 13 13 12 11 8 7 6 5 5 4 3 2 3 4 6 5 4 5 4 5 7 7 8 19 23 20 10 12 11 10 9 14 16 24 32 21 16 14 11
13 14 14 14 15 11 11 11 8 7 6 5 4 3 2 2 4 4 6 4 3 5 5 7 6 10 7 15 22 19 9 11 10 11 12 20 23 32 31 20 16 14 16
15 14 13 13 12 10 10 9 7 6 5 5 4 2 2 3 4 5 3 4 5 6 6 6 6 6 7 9 21 22 11 10 10 10 11 11 29 29 31 29 14 18 21
12 13 13 11 8 8 10 8 7 6 5 4 2 2 3 3 3 4 5 6 6 6 6 6 5 4 6 13 17 23 23 21 12 12 11 14 26 30 29 23 28 29 24
11 10 12 10 7 7 8 8 6 6 5 4 2 2 3 4 4 5 6 5 5 5 7 6 7 7 6 6 18 22 23 22 16 11 20 25 27 27 18 24 27 24 11
10 10 11 9 7 6 7 7 6 6 5 3 2 3 3 5 5 4 4 4 4 5 6 7 8 8 8 7 8 9 10 16 12 16 10 18 21 21 20 16 14 10 10
8 8 9 8 7 7 7 6 6 6 4 2 1 3 3 4 5 4 4 4 4 7 9 8 7 9 10 10 22 20 14 13 17 19 10 10 11 11 11 11 11 11 11
7 7 7 8 7 7 6 6 5 5 3 2 3 3 3 4 3 4 5 9 14 17 18 19 15 10 19 25 26 27 27 27 27 11 10 11 11 11 12 12 13 11 15
Wind_Direction
165 130 120 104 101 97 120 128 118 117 106 102 101 86 86 85 75 71 68 61 59 55 52 48 39 29 47 31 18 353 350 331 347 357 316 302 296 44 347 340 324 342 336
150 141 128 100 80 90 83 82 83 83 93 99 97 102 105 80 85 81 71 70 64 56 64 53 41 39 44 30 24 29 351 323 10 348 300 335 323 354 326 325 319 341 340
159 149 132 113 101 91 90 94 97 100 101 106 104 98 82 64 68 66 76 71 71 60 60 53 52 45 51 35 15 24 29 338 321 359 52 348 318 325 324 320 327 332 334
143 140 130 116 111 101 94 94 92 99 101 111 113 117 118 121 122 123 107 83 71 60 52 47 45 47 37 29 360 21 27 11 341 344 31 186 246 309 316 345 316 306 321
153 146 131 124 114 104 95 86 84 83 93 99 108 110 102 103 100 90 91 85 61 52 46 45 42 39 30 15 19 13 4 355 325 327 316 311 280 240 264 300 314 300 307
141 130 120 116 111 106 96 89 91 81 85 93 94 105 110 105 89 75 75 67 68 45 36 35 33 27 21 5 360 360 353 340 315 309 301 279 300 314 313 306 308 303 302
141 136 132 128 124 124 116 107 101 90 88 92 94 100 100 95 97 94 91 72 42 31 22 29 18 4 353 358 358 351 346 325 330 318 294 284 275 280 298 300 302 299 305
144 140 138 132 134 136 122 112 109 106 97 95 94 91 95 94 93 99 95 84 71 73 24 22 17 360 355 355 356 347 336 337 326 313 310 301 302 303 294 295 302 305 303
147 144 139 141 141 137 132 127 118 113 106 105 100 95 97 99 104 97 87 81 44 38 27 15 3 354 356 355 353 342 327 319 303 304 306 311 314 298 287 290 289 292 307
145 144 143 143 136 137 129 119 120 122 120 113 108 107 109 104 102 89 77 59 38 26 17 0 359 352 347 344 342 324 307 309 308 323 330 322 315 306 299 290 287 283 286
150 146 145 141 134 133 131 127 124 122 115 112 112 108 101 96 93 83 69 55 38 17 6 351 346 339 331 325 320 306 296 312 332 318 323 316 313 304 308 299 291 282 277
146 143 143 139 142 139 135 136 127 121 125 125 115 106 99 92 81 73 53 42 23 2 349 341 330 319 314 304 300 298 309 319 309 309 316 315 312 309 302 295 292 285 285
143 143 143 146 146 142 140 135 129 129 130 120 113 103 96 87 79 63 42 25 5 343 334 329 318 309 304 298 296 292 305 290 284 290 308 316 311 303 299 294 293 291 292
153 149 149 150 149 147 144 136 130 127 124 116 113 109 104 100 86 63 29 7 345 333 324 314 307 302 305 308 301 302 287 278 292 290 302 305 300 297 301 303 301 307 301
156 156 153 152 150 144 135 132 130 125 123 114 113 119 116 99 77 39 5 339 332 322 314 316 313 312 325 324 324 315 300 286 284 276 293 298 295 310 308 310 314 304 299
154 152 154 154 153 147 141 137 133 128 118 121 128 126 110 87 48 5 346 338 331 323 320 320 316 324 321 319 324 325 316 299 281 287 299 290 299 299 305 308 305 301 303
157 160 160 157 151 144 139 138 133 123 120 125 130 126 106 71 17 357 351 334 322 321 316 317 322 307 297 324 326 324 318 301 279 291 294 298 300 307 300 298 302 304 294
154 152 146 140 134 128 125 123 122 121 124 132 135 119 98 44 3 351 332 320 307 310 311 311 299 301 311 323 325 326 321 306 289 287 295 299 309 307 305 306 305 295 297
135 126 126 124 121 123 126 122 116 118 124 132 126 111 81 18 338 325 316 299 291 309 300 294 309 309 305 328 332 332 331 320 315 310 314 313 310 309 311 314 312 317 307
104 109 109 111 113 121 121 118 122 125 130 131 124 95 59 344 316 308 300 279 303 297 310 313 305 317 321 329 333 334 320 318 315 319 307 309 314 313 317 322 322 319 312
101 101 103 111 120 119 118 117 121 126 133 119 102 69 4 316 291 303 290 312 317 315 301 292 299 302 308 317 329 330 325 317 317 310 316 309 312 317 327 329 332 308 320
97 102 107 109 107 109 112 118 123 140 120 110 95 5 331 308 321 333 327 328 315 305 302 303 299 281 279 301 319 324 323 321 318 318 313 308 322 330 329 330 318 326 330
107 105 110 104 97 110 118 121 145 126 113 94 55 347 326 330 351 348 326 319 315 312 321 314 313 313 306 287 303 313 315 332 329 321 316 330 328 329 328 320 326 325 315
115 116 114 111 105 105 109 120 128 116 103 95 18 337 357 359 351 330 311 315 314 320 321 319 322 315 314 313 308 319 329 330 333 317 326 328 328 325 319 319 317 316 312
122 125 127 125 122 114 112 119 116 111 107 96 11 11 7 348 318 317 308 316 300 324 327 321 320 321 325 321 330 335 333 333 329 337 333 325 324 320 318 319 319 317 315
124 119 122 124 132 123 124 121 117 117 125 69 18 345 328 316 323 314 317 335 331 327 326 327 328 325 322 327 333 330 335 338 335 339 325 322 319 318 319 320 318 318 320